Everett, WA

6:29 PM PST on December 15, 2019 (GMT -0800)
Snohomish County

Weather History for KPAE - October, 2019

Change the Weather History Date:

Tuesday, October 15, 2019

  Actual Average Record
Temperature  
Mean Temperature 52 °F -  
Max Temperature 57 °F 59 °F 75 °F (1963)
Min Temperature 48 °F 41 °F 28 °F (1992)
Degree Days  
Heating Degree Days 12    
Growing Degree Days 2 (Base 50)    
Moisture  
Dew Point 43 °F    
Average Humidity 65    
Maximum Humidity 83    
Minimum Humidity 55    
Precipitation  
Precipitation 0.00 in - - ()
Sea Level Pressure  
Sea Level Pressure 29.96 in    
Wind  
Wind Speed 8 mph (SSE)    
Max Wind Speed 17 mph    
Max Gust Speed 23 mph    
Visibility 10 miles    
Events Rain    
Averages and records for this station are not official NWS values.
T = Trace of Precipitation, MM = Missing Value Source: NWS Daily Summary

Daily Weather History Graph

Daily Weather History Graph

Search for Another Location

Airport or City:

Astronomy

Oct. 15, 2019 Rise Set
Actual Time 7:28 AM PDT 6:20 PM PDT
Civil Twilight 6:56 AM PDT 6:52 PM PDT
Nautical Twilight 6:20 AM PDT 7:27 PM PDT
Astronomical Twilight 5:45 AM PDT 8:03 PM PDT
Moon 7:37 PM PDT (10/15) 9:08 AM PDT (10/15)
Length of Visible Light 11h 55m
Length of Day
10h 52m
Waning Gibbous, 97% of the Moon is Illuminated
Oct 15
Waning Gibbous
Oct 21
Last Quarter
Oct 27
New
Nov 4
First Quarter
Nov 12
Full

Hourly Weather History & Observations

Time (PDT) Temp. Dew Point Humidity Pressure Visibility Wind Dir Wind Speed Gust Speed Precip Events Conditions
2:53 AM 48.9 °F 44.1 °F 83% 30.00 in 10.0 mi Calm Calm - N/A   Clear
3:53 AM 50.0 °F 43.0 °F 77% 29.99 in 10.0 mi SSE 4.6 mph - N/A   Clear
4:53 AM 50.0 °F 43.0 °F 77% 29.97 in 10.0 mi SSE 5.8 mph - N/A   Clear
5:53 AM 51.1 °F 39.9 °F 66% 29.95 in 10.0 mi SSE 9.2 mph - N/A   Clear
6:53 AM 51.1 °F 39.9 °F 66% 29.95 in 10.0 mi SSE 5.8 mph - N/A   Clear
7:53 AM 51.1 °F 41.0 °F 68% 29.94 in 10.0 mi SSE 6.9 mph - N/A   Clear
8:53 AM 52.0 °F 42.1 °F 69% 29.95 in 10.0 mi South 5.8 mph - N/A   Scattered Clouds
9:53 AM 53.1 °F 42.1 °F 66% 29.97 in 10.0 mi SSE 10.4 mph - N/A   Clear
10:53 AM 54.0 °F 44.1 °F 69% 30.00 in 10.0 mi SSE 10.4 mph - N/A   Clear
11:53 AM 55.9 °F 44.1 °F 64% 30.01 in 10.0 mi SSE 17.3 mph - N/A   Clear
12:53 PM 57.0 °F 43.0 °F 59% 30.00 in 10.0 mi South 13.8 mph - N/A   Clear
1:53 PM 57.9 °F 43.0 °F 58% 30.01 in 10.0 mi South 16.1 mph - N/A   Mostly Cloudy
2:53 PM 57.0 °F 41.0 °F 55% 29.99 in 10.0 mi SSE 13.8 mph - N/A   Overcast
3:53 PM 57.9 °F 42.1 °F 56% 29.96 in 10.0 mi SSE 10.4 mph - N/A   Overcast
4:53 PM 57.0 °F 44.1 °F 62% 29.96 in 10.0 mi SSE 11.5 mph - N/A   Mostly Cloudy
5:53 PM 57.0 °F 44.1 °F 62% 29.94 in 10.0 mi SSE 11.5 mph - N/A   Scattered Clouds
6:53 PM 57.0 °F 43.0 °F 59% 29.95 in 10.0 mi SSE 12.7 mph 19.6 mph N/A   Overcast
7:53 PM 57.0 °F 43.0 °F 59% 29.95 in 10.0 mi South 15.0 mph 23.0 mph N/A   Overcast
8:53 PM 55.9 °F 44.1 °F 64% 29.94 in 10.0 mi SSE 15.0 mph - N/A   Mostly Cloudy
9:53 PM 55.9 °F 44.1 °F 64% 29.94 in 10.0 mi SSE 12.7 mph 17.3 mph 0.00 in Rain Light Rain
10:53 PM 55.9 °F 44.1 °F 64% 29.92 in 10.0 mi SSE 13.8 mph - 0.00 in   Overcast
11:53 PM 55.0 °F 44.1 °F 67% 29.89 in 10.0 mi SSE 15.0 mph - 0.00 in   Mostly Cloudy